| time (UTC) | temp C | wind direction | speed KPH | gust KPH | rain 1hr cm | rain 24hr cm | rain mn cm | humidity % | barometer mb |
| 20260507092911 | 10 | 65 | 0.0 | 0.0 | 0.00 | 0.71 | 0.15 | 88 | 1012.9 |
| 20260507091921 | 10 | 65 | 0.0 | 0.0 | 0.00 | 0.71 | 0.15 | 89 | 1012.9 |
| 20260507090915 | 10 | 65 | 0.0 | 0.0 | 0.00 | 0.71 | 0.15 | 88 | 1012.8 |
| 20260507085918 | 10 | 65 | 0.0 | 0.0 | 0.00 | 0.79 | 0.15 | 89 | 1012.9 |
| 20260507084928 | 9 | 65 | 0.0 | 0.0 | 0.00 | 0.79 | 0.15 | 88 | 1012.8 |
| 20260507083919 | 10 | 65 | 0.0 | 0.0 | 0.00 | 0.79 | 0.15 | 89 | 1012.8 |
| 20260507082927 | 9 | 65 | 0.0 | 0.0 | 0.20 | 0.79 | 0.15 | 89 | 1012.7 |
| 20260507081916 | 9 | 65 | 0.0 | 0.0 | 0.20 | 0.79 | 0.15 | 89 | 1012.7 |
| 20260507080926 | 9 | 65 | 0.0 | 0.0 | 0.20 | 0.79 | 0.15 | 88 | 1012.7 |
| 20260507075911 | 9 | 65 | 0.0 | 0.0 | 0.20 | 0.79 | 0.15 | 88 | 1012.6 |
| 20260507074925 | 9 | 65 | 0.0 | 4.8 | 0.30 | 0.79 | 0.15 | 87 | 1012.5 |
| 20260507073916 | 9 | 65 | 0.0 | 4.8 | 0.71 | 0.79 | 0.15 | 86 | 1012.2 |
| 20260507072920 | 9 | 65 | 0.0 | 0.0 | 0.51 | 0.61 | 0.10 | 85 | 1012.6 |
| 20260507071911 | 9 | 65 | 0.0 | 0.0 | 0.51 | 0.61 | 0.10 | 85 | 1012.5 |
| 20260507070918 | 9 | 65 | 0.0 | 0.0 | 0.51 | 0.61 | 0.10 | 84 | 1012.5 |
| 20260507065922 | 9 | 65 | 0.0 | 0.0 | 0.51 | 0.61 | 0.10 | 83 | 1012.4 |
| 20260507064927 | 9 | 65 | 0.0 | 0.0 | 0.41 | 0.51 | 0.08 | 82 | 1012.4 |
| 20260507063924 | 9 | 65 | 0.0 | 0.0 | 0.00 | 0.10 | 0.00 | 81 | 1012.4 |
| 20260507062912 | 9 | 65 | 0.0 | 0.0 | 0.00 | 0.10 | 0.00 | 81 | 1012.3 |
| 20260507061921 | 9 | 65 | 0.0 | 0.0 | 0.00 | 0.10 | 0.00 | 81 | 1012.3 |
| 20260507060912 | 9 | 65 | 0.0 | 0.0 | 0.00 | 0.10 | 0.00 | 81 | 1012.2 |
| 20260507055919 | 9 | 65 | 0.0 | 0.0 | 0.00 | 0.10 | 0.00 | 80 | 1012.0 |
| 20260507053918 | 9 | 65 | 0.0 | 0.0 | 0.00 | 0.10 | 0.00 | 80 | 1011.9 |
| 20260507052928 | 9 | 65 | 0.0 | 0.0 | 0.00 | 0.10 | 0.00 | 79 | 1011.8 |
| 20260507051922 | 9 | 65 | 0.0 | 0.0 | 0.00 | 0.10 | 0.00 | 79 | 1011.8 |
| 20260507050912 | 9 | 65 | 0.0 | 0.0 | 0.00 | 0.10 | 0.00 | 79 | 1011.8 |
| 20260507045916 | 9 | 65 | 0.0 | 0.0 | 0.00 | 0.10 | 0.00 | 79 | 1011.7 |
| 20260507044926 | 9 | 65 | 0.0 | 0.0 | 0.00 | 0.10 | 0.00 | 79 | 1011.9 |
| 20260507043919 | 9 | 65 | 0.0 | 0.0 | 0.00 | 0.10 | 0.00 | 78 | 1011.9 |
| 20260507042923 | 9 | 65 | 0.0 | 4.8 | 0.00 | 0.10 | 0.00 | 77 | 1011.9 |
| 20260507041930 | 9 | 65 | 0.0 | 0.0 | 0.00 | 0.10 | 0.00 | 77 | 1011.9 |
| 20260507040918 | 9 | 65 | 0.0 | 0.0 | 0.00 | 0.10 | 0.00 | 77 | 1012.0 |
| 20260507035924 | 9 | 65 | 0.0 | 0.0 | 0.00 | 0.10 | 0.00 | 76 | 1012.0 |
| 20260507034914 | 9 | 65 | 0.0 | 0.0 | 0.00 | 0.10 | 0.00 | 76 | 1012.0 |
| 20260507033925 | 9 | 65 | 0.0 | 0.0 | 0.00 | 0.10 | 0.00 | 76 | 1012.1 |
| 20260507032911 | 9 | 65 | 0.0 | 0.0 | 0.00 | 0.10 | 0.00 | 76 | 1012.1 |
| 20260507031921 | 9 | 65 | 0.0 | 0.0 | 0.00 | 0.10 | 0.00 | 75 | 1012.1 |
| 20260507030912 | 9 | 65 | 0.0 | 0.0 | 0.00 | 0.10 | 0.00 | 75 | 1012.2 |
| 20260507025916 | 9 | 65 | 0.0 | 0.0 | 0.00 | 0.10 | 0.00 | 75 | 1012.2 |
| 20260507024910 | 9 | 65 | 0.0 | 0.0 | 0.00 | 0.10 | 0.00 | 76 | 1012.2 |
| 20260507023919 | 9 | 65 | 0.0 | 0.0 | 0.00 | 0.10 | 0.00 | 76 | 1012.2 |
| 20260507022923 | 9 | 65 | 0.0 | 0.0 | 0.00 | 0.10 | 0.00 | 75 | 1012.2 |
| 20260507022013 | 9 | 65 | 0.0 | 0.0 | 0.00 | 0.10 | 0.00 | 75 | 1012.3 |
| 20260507021916 | 9 | 65 | 0.0 | 0.0 | 0.00 | 0.10 | 0.00 | 75 | 1012.3 |
| 20260507020925 | 9 | 65 | 0.0 | 0.0 | 0.00 | 0.10 | 0.00 | 75 | 1012.3 |
| 20260507015926 | 9 | 65 | 0.0 | 0.0 | 0.00 | 0.10 | 0.00 | 75 | 1012.3 |
| 20260507014917 | 8 | 65 | 0.0 | 0.0 | 0.00 | 0.10 | 0.00 | 75 | 1012.3 |
| 20260507013927 | 8 | 65 | 0.0 | 0.0 | 0.00 | 0.10 | 0.00 | 75 | 1012.3 |
| 20260507012928 | 8 | 65 | 0.0 | 0.0 | 0.00 | 0.10 | 0.00 | 74 | 1012.3 |
| 20260507011917 | 9 | 65 | 0.0 | 6.4 | 0.00 | 0.10 | 0.00 | 73 | 1012.3 |
| 20260507010926 | 9 | 65 | 0.0 | 6.4 | 0.00 | 0.10 | 0.00 | 72 | 1012.4 |
| 20260507005929 | 10 | 65 | 0.0 | 4.8 | 0.00 | 0.10 | 0.00 | 71 | 1012.5 |
| 20260507004917 | 10 | 66 | 0.0 | 8.0 | 0.00 | 0.10 | 0.00 | 70 | 1012.4 |
| 20260507003925 | 10 | 65 | 1.6 | 8.0 | 0.00 | 0.10 | 0.00 | 70 | 1012.4 |
| 20260507002925 | 10 | 66 | 1.6 | 11.3 | 0.00 | 0.10 | 0.00 | 71 | 1012.3 |
| 20260507001913 | 10 | 67 | 3.2 | 12.9 | 0.00 | 0.10 | 0.00 | 70 | 1012.4 |
| 20260507000922 | 10 | 69 | 3.2 | 12.9 | 0.00 | 0.10 | 0.00 | 69 | 1012.4 |
| 20260506235927 | 10 | 71 | 1.6 | 11.3 | 0.00 | 0.10 | 0.03 | 68 | 1012.3 |
| 20260506234915 | 9 | 73 | 3.2 | 12.9 | 0.00 | 0.10 | 0.03 | 69 | 1012.4 |
| 20260506233925 | 9 | 172 | 0.0 | 0.0 | 0.00 | 0.10 | 0.03 | 70 | 1012.3 |
| 20260506232923 | 8 | 175 | 0.0 | 4.8 | 0.00 | 0.10 | 0.03 | 71 | 1012.2 |
| 20260506231912 | 8 | 176 | 0.0 | 0.0 | 0.00 | 0.10 | 0.03 | 72 | 1012.1 |
| 20260506230926 | 8 | 176 | 0.0 | 0.0 | 0.00 | 0.10 | 0.03 | 73 | 1012.0 |
| 20260506225928 | 7 | 176 | 0.0 | 0.0 | 0.00 | 0.10 | 0.03 | 74 | 1012.0 |
| 20260506224917 | 8 | 176 | 0.0 | 0.0 | 0.00 | 0.10 | 0.03 | 72 | 1012.1 |
| 20260506223926 | 8 | 176 | 0.0 | 0.0 | 0.00 | 0.10 | 0.03 | 72 | 1012.1 |
| 20260506222926 | 8 | 176 | 0.0 | 0.0 | 0.00 | 0.10 | 0.03 | 71 | 1012.1 |
| 20260506221915 | 8 | 176 | 0.0 | 0.0 | 0.00 | 0.10 | 0.03 | 70 | 1012.0 |
| 20260506220928 | 8 | 176 | 0.0 | 0.0 | 0.00 | 0.10 | 0.03 | 69 | 1012.0 |
| 20260506220010 | 9 | 176 | 0.0 | 0.0 | 0.00 | 0.10 | 0.03 | 68 | 1012.1 |
| 20260506214911 | 9 | 176 | 0.0 | 0.0 | 0.00 | 0.10 | 0.03 | 68 | 1012.2 |
| 20260506213919 | 9 | 176 | 0.0 | 0.0 | 0.00 | 0.10 | 0.03 | 67 | 1012.1 |
| 20260506212922 | 9 | 176 | 0.0 | 0.0 | 0.00 | 0.10 | 0.03 | 65 | 1012.2 |
| 20260506211911 | 10 | 176 | 0.0 | 0.0 | 0.00 | 0.10 | 0.03 | 65 | 1012.2 |
| 20260506210924 | 10 | 176 | 0.0 | 0.0 | 0.00 | 0.10 | 0.03 | 65 | 1012.2 |
| 20260506205927 | 10 | 176 | 0.0 | 0.0 | 0.00 | 0.10 | 0.03 | 63 | 1012.2 |
| 20260506204913 | 10 | 176 | 0.0 | 0.0 | 0.00 | 0.10 | 0.03 | 62 | 1012.1 |
| 20260506203922 | 10 | 176 | 0.0 | 0.0 | 0.00 | 0.10 | 0.03 | 60 | 1012.0 |
| 20260506202923 | 11 | 176 | 0.0 | 0.0 | 0.00 | 0.10 | 0.03 | 59 | 1012.0 |
| 20260506201912 | 11 | 176 | 0.0 | 0.0 | 0.00 | 0.10 | 0.03 | 58 | 1012.0 |
| 20260506200922 | 11 | 176 | 0.0 | 0.0 | 0.00 | 0.10 | 0.03 | 55 | 1011.9 |
| 20260506195925 | 12 | 176 | 0.0 | 0.0 | 0.00 | 0.10 | 0.03 | 57 | 1011.9 |
| 20260506193929 | 12 | 176 | 0.0 | 0.0 | 0.00 | 0.10 | 0.03 | 55 | 1011.7 |
| 20260506192916 | 13 | 176 | 0.0 | 0.0 | 0.00 | 0.10 | 0.03 | 53 | 1011.7 |
| 20260506191925 | 13 | 176 | 0.0 | 0.0 | 0.00 | 0.10 | 0.03 | 52 | 1011.7 |
| 20260506190913 | 14 | 176 | 0.0 | 0.0 | 0.00 | 0.10 | 0.03 | 52 | 1011.6 |
| 20260506185915 | 14 | 176 | 0.0 | 0.0 | 0.00 | 0.10 | 0.03 | 52 | 1011.4 |
| 20260506184927 | 15 | 176 | 0.0 | 0.0 | 0.00 | 0.10 | 0.03 | 50 | 1011.3 |
| 20260506183916 | 15 | 176 | 0.0 | 0.0 | 0.00 | 0.10 | 0.03 | 48 | 1011.3 |
| 20260506182919 | 16 | 176 | 0.0 | 0.0 | 0.00 | 0.10 | 0.03 | 48 | 1011.3 |
| 20260506181928 | 16 | 176 | 0.0 | 0.0 | 0.00 | 0.10 | 0.03 | 46 | 1011.2 |
| 20260506180917 | 16 | 176 | 0.0 | 0.0 | 0.00 | 0.10 | 0.03 | 47 | 1011.2 |
| 20260506175920 | 16 | 176 | 0.0 | 0.0 | 0.00 | 0.10 | 0.03 | 44 | 1011.1 |
| 20260506174928 | 16 | 176 | 0.0 | 0.0 | 0.00 | 0.10 | 0.03 | 44 | 1011.2 |
| 20260506173917 | 16 | 176 | 0.0 | 0.0 | 0.00 | 0.10 | 0.03 | 45 | 1011.2 |
| 20260506172920 | 16 | 176 | 0.0 | 4.8 | 0.00 | 0.10 | 0.03 | 44 | 1011.3 |
| 20260506171930 | 16 | 176 | 1.6 | 9.7 | 0.00 | 0.10 | 0.03 | 42 | 1011.2 |
| 20260506170917 | 17 | 176 | 3.2 | 8.0 | 0.00 | 0.10 | 0.03 | 41 | 1011.3 |
| 20260506165919 | 17 | 176 | 0.0 | 6.4 | 0.00 | 0.10 | 0.03 | 42 | 1011.2 |
| 20260506164926 | 18 | 176 | 0.0 | 0.0 | 0.00 | 0.10 | 0.03 | 39 | 1011.3 |
| 20260506163913 | 17 | 176 | 0.0 | 8.0 | 0.00 | 0.10 | 0.03 | 40 | 1011.3 |
| 20260506162920 | 18 | 176 | 0.0 | 9.7 | 0.00 | 0.10 | 0.03 | 40 | 1011.3 |
| 20260506161929 | 18 | 176 | 1.6 | 9.7 | 0.00 | 0.10 | 0.03 | 42 | 1011.3 |
| 20260506160919 | 18 | 175 | 0.0 | 6.4 | 0.00 | 0.10 | 0.03 | 43 | 1011.3 |
| 20260506155922 | 17 | 175 | 1.6 | 11.3 | 0.00 | 0.10 | 0.03 | 44 | 1011.3 |
| 20260506154912 | 16 | 173 | 0.0 | 6.4 | 0.00 | 0.10 | 0.03 | 44 | 1011.4 |
| 20260506153921 | 16 | 173 | 0.0 | 0.0 | 0.00 | 0.10 | 0.03 | 43 | 1011.3 |
| 20260506153006 | 17 | 173 | 3.2 | 11.3 | 0.00 | 0.10 | 0.03 | 41 | 1011.6 |
| 20260506151929 | 17 | 164 | 1.6 | 14.5 | 0.00 | 0.10 | 0.03 | 43 | 1011.6 |
| 20260506150918 | 17 | 161 | 1.6 | 8.0 | 0.00 | 0.10 | 0.03 | 44 | 1011.7 |
| 20260506145926 | 17 | 161 | 3.2 | 11.3 | 0.00 | 0.10 | 0.03 | 43 | 1011.9 |
| 20260506144914 | 17 | 157 | 1.6 | 8.0 | 0.00 | 0.10 | 0.03 | 44 | 1011.9 |
| 20260506143922 | 17 | 157 | 1.6 | 11.3 | 0.00 | 0.10 | 0.03 | 44 | 1012.0 |
| 20260506142945 | 17 | 155 | 0.0 | 9.7 | 0.00 | 0.10 | 0.03 | 46 | 1012.1 |
| 20260506141933 | 16 | 153 | 3.2 | 8.0 | 0.00 | 0.10 | 0.03 | 48 | 1012.2 |
| 20260506140943 | 16 | 146 | 0.0 | 4.8 | 0.00 | 0.10 | 0.03 | 50 | 1012.4 |
| 20260506135945 | 15 | 148 | 0.0 | 0.0 | 0.00 | 0.10 | 0.03 | 50 | 1012.6 |
| 20260506134932 | 15 | 150 | 0.0 | 3.2 | 0.00 | 0.10 | 0.03 | 50 | 1012.6 |
| 20260506133939 | 15 | 151 | 0.0 | 9.7 | 0.00 | 0.10 | 0.03 | 50 | 1012.6 |
| 20260506132942 | 15 | 153 | 0.0 | 0.0 | 0.00 | 0.10 | 0.03 | 53 | 1012.7 |
| 20260506131931 | 13 | 153 | 0.0 | 4.8 | 0.00 | 0.10 | 0.03 | 53 | 1012.7 |
| 20260506130942 | 15 | 154 | 0.0 | 8.0 | 0.00 | 0.10 | 0.03 | 50 | 1012.8 |
| 20260506125943 | 15 | 153 | 0.0 | 8.0 | 0.00 | 0.10 | 0.03 | 52 | 1012.9 |
| 20260506124951 | 13 | 148 | 0.0 | 0.0 | 0.00 | 0.10 | 0.03 | 57 | 1013.0 |
| 20260506123939 | 14 | 148 | 0.0 | 9.7 | 0.00 | 0.10 | 0.03 | 52 | 1013.2 |
| 20260506122942 | 15 | 134 | 0.0 | 8.0 | 0.00 | 0.10 | 0.03 | 54 | 1013.2 |
| 20260506121934 | 13 | 78 | 0.0 | 6.4 | 0.00 | 0.10 | 0.03 | 56 | 1013.3 |
| 20260506120943 | 13 | 77 | 0.0 | 0.0 | 0.00 | 0.10 | 0.03 | 59 | 1013.4 |
| 20260506115947 | 13 | 74 | 0.0 | 0.0 | 0.00 | 0.10 | 0.03 | 58 | 1013.4 |
| 20260506114951 | 13 | 74 | 0.0 | 0.0 | 0.00 | 0.10 | 0.03 | 56 | 1013.4 |
| 20260506113938 | 13 | 74 | 0.0 | 4.8 | 0.00 | 0.10 | 0.03 | 57 | 1013.5 |
| 20260506112941 | 13 | 148 | 0.0 | 4.8 | 0.00 | 0.10 | 0.03 | 53 | 1013.5 |
| 20260506111934 | 15 | 195 | 1.6 | 6.4 | 0.00 | 0.10 | 0.03 | 54 | 1013.6 |
| 20260506110943 | 14 | 199 | 0.0 | 8.0 | 0.00 | 0.10 | 0.03 | 54 | 1013.6 |
| 20260506105946 | 13 | 165 | 1.6 | 8.0 | 0.00 | 0.10 | 0.03 | 59 | 1013.7 |
| 20260506104935 | 13 | 166 | 1.6 | 8.0 | 0.00 | 0.10 | 0.03 | 57 | 1013.8 |
| 20260506103944 | 13 | 150 | 1.6 | 11.3 | 0.00 | 0.10 | 0.03 | 55 | 1013.8 |
| 20260506102945 | 14 | 97 | 0.0 | 0.0 | 0.00 | 0.10 | 0.03 | 53 | 1013.8 |
| 20260506101938 | 13 | 94 | 0.0 | 0.0 | 0.00 | 0.10 | 0.03 | 58 | 1013.8 |
| 20260506100949 | 12 | 38 | 0.0 | 0.0 | 0.00 | 0.10 | 0.03 | 59 | 1014.0 |
| 20260506095948 | 12 | 38 | 0.0 | 0.0 | 0.00 | 0.10 | 0.03 | 60 | 1014.0 |
| 20260506094936 | 12 | 38 | 0.0 | 0.0 | 0.00 | 0.10 | 0.03 | 59 | 1014.1 |
| 20260506093946 | 12 | 38 | 0.0 | 0.0 | 0.10 | 0.10 | 0.03 | 59 | 1014.0 |